This is the latest recevied weather packets stored in our database for station/object W3AJR. If no packets are shown the sender has not sent any weather packets the latest 10 day(s).
| Time | Temp. | Humidity | Pressure | Rain* | Wind** | Luminosity | Snow |
|---|---|---|---|---|---|---|---|
| 1777325291 | 20.56° C | 43% | 1021.5 hPa | 0 mm | - | 53 W/m² | - |
| 1777324988 | 20.56° C | 43% | 1021.5 hPa | 0 mm | - | 53 W/m² | - |
| 1777324685 | 20.56° C | 43% | 1021.5 hPa | 0 mm | - | 53 W/m² | - |
| 1777324383 | 21.11° C | 44% | 1021.5 hPa | 0 mm | - | 58 W/m² | - |
| 1777324080 | 21.11° C | 44% | 1021.2 hPa | 0 mm | - | 65 W/m² | - |
| 1777323777 | 21.11° C | 42% | 1021.4 hPa | 0 mm | - | 85 W/m² | - |
| 1777323474 | 21.11° C | 41% | 1021.5 hPa | 0 mm | - | 447 W/m² | - |
| 1777323171 | 21.11° C | 41% | 1021.5 hPa | 0 mm | - | 443 W/m² | - |
| 1777322869 | 21.11° C | 42% | 1021.5 hPa | 0 mm | - | 441 W/m² | - |
| 1777322568 | 21.11° C | 41% | 1021.6 hPa | 0 mm | - | 452 W/m² | - |
| 1777322264 | 21.11° C | 43% | 1021.7 hPa | 0 mm | - | 475 W/m² | - |
| 1777321961 | 21.11° C | 43% | 1021.8 hPa | 0 mm | - | 499 W/m² | - |
| 1777321658 | 21.67° C | 43% | 1021.6 hPa | 0 mm | - | 519 W/m² | - |
| 1777321354 | 21.11° C | 43% | 1021.8 hPa | 0 mm | - | 546 W/m² | - |
| 1777321051 | 21.11° C | 44% | 1022 hPa | 0 mm | - | 563 W/m² | - |
| 1777320750 | 21.11° C | 42% | 1021.9 hPa | 0 mm | - | 576 W/m² | - |
| 1777320446 | 21.67° C | 45% | 1022.1 hPa | 0 mm | - | 559 W/m² | - |
| 1777320143 | 21.67° C | 44% | 1022.2 hPa | 0 mm | - | 590 W/m² | - |
| 1777319840 | 21.11° C | 42% | 1022 hPa | 0 mm | - | 540 W/m² | - |
| 1777319537 | 21.11° C | 43% | 1022 hPa | 0 mm | - | 573 W/m² | - |
| 1777319234 | 21.11° C | 44% | 1022.1 hPa | 0 mm | - | 585 W/m² | - |
| 1777318931 | 21.11° C | 45% | 1022.1 hPa | 0 mm | - | 581 W/m² | - |
| 1777318628 | 21.11° C | 44% | 1022.3 hPa | 0 mm | - | 574 W/m² | - |
| 1777318324 | 21.67° C | 43% | 1022.2 hPa | 0 mm | - | 562 W/m² | - |
| 1777318021 | 21.11° C | 42% | 1022.2 hPa | 0 mm | - | 596 W/m² | - |
* Rain latest hour (hover to see other rain measurements)
** Current wind speed in m/s (hover to see current wind gust speed)